Regional Weather Roundup
Issued by NWS Sioux Falls, SD

Home | Current Version | Previous Version | Graphics & Text | Print | Product List | Glossary On
Versions: 1 2 3 4 5 6 7 8 9 10 11 12 13 14 15 16 17 18 19 20 21 22 23 24 25 26 27 28 29 30 31 32 33 34 35 36 37 38 39 40 41 42 43 44 45 46 47 48 49 50
000
ASUS43 KFSD 201102
RWRFSD

WEATHER ROUNDUP FOR SE SOUTH DAKOTA/SW MINNESOTA/NW IOWA
NATIONAL WEATHER SERVICE SIOUX FALLS SD
500 AM CST MON FEB 20 2017

NOTE: "FAIR" INDICATES FEW OR NO CLOUDS BELOW 12,000 FEET WITH NO
SIGNIFICANT WEATHER AND OR OBSTRUCTIONS TO VISIBILITY.


SDZ038>040-050-052>070-201200-
SOUTHEAST SOUTH DAKOTA

CITY           SKY/WX    TMP DP  RH WIND       PRES   REMARKS
BROOKINGS      CLOUDY    51  49  92 S23       29.68F FOG
CHAMBERLAIN    CLOUDY    55  51  88 S9        29.57F
HURON          CLOUDY    52  50  93 S14       29.60R
MADISON        CLOUDY    50  50 100 S15G22    29.69R
MITCHELL       CLOUDY    53  51  93 SE18      29.63S
SIOUX FALLS    CLOUDY    53  51  93 SE17      29.74R
WINNER         FAIR      55  48  77 SW15      29.57R
YANKTON        CLOUDY    52  48  87 SE8       29.69S
$$

MNZ071-072-080-081-089-090-097-098-201200-
SOUTHWEST MINNESOTA

CITY           SKY/WX    TMP DP  RH WIND       PRES   REMARKS
FAIRMONT       MOCLDY    49  45  86 S14       29.80S
JACKSON        MOCLDY    50  45  81 S13G20    29.79R
LUVERNE        CLOUDY    50  46  87 S8        29.76R
MARSHALL       MOCLDY    55  50  83 SE10      29.70S
MONTEVIDEO     CLOUDY    52  48  87 S10G17    29.72R
PIPESTONE      CLOUDY    54  48  82 S14G21    29.72S
REDWOOD FALLS  CLOUDY    50  45  83 SE17      29.75R
TRACY          MOCLDY    51  49  92 S13       29.72S
WINDOM         CLOUDY    52  48  87 S13G18    29.76R
WORTHINGTON    CLOUDY    50  48  93 S16       29.77R
$$

IAZ001>003-012>014-020>022-031-032-NEZ013-014-SDZ071-201200-
NORTHWEST IOWA

CITY           SKY/WX    TMP DP  RH WIND       PRES   REMARKS
CHEROKEE       CLOUDY    51  51  98 SE10      29.77S
DENISON        CLOUDY    55  52  88 SE15G22   29.77R
ESTHERVILLE    CLOUDY    48  46  93 S17       29.79S
LE MARS        CLOUDY    55  52  88 CALM      29.76R
SHELDON        CLOUDY    52  52 100 S16       29.75R
SIOUX CITY     CLOUDY    57  53  86 S12       29.74R
SPENCER        CLOUDY    51  49  92 SE8       29.78S
STORM LAKE     CLOUDY    48  46  93 SE10      29.79S
$$

ABBREVIATIONS USED IN REMARKS
   TC - TEMPERATURE IN CELSIUS
  WCI - WIND CHILL INDEX
   HX - HEAT INDEX
  VSB - VISIBILITY




USA.gov is the U.S. government's official web portal to all federal, state and local government web resources and services.